IRIDIUM 33 DEB, 34071

Orbit data source: Space-Track

IRIDIUM 33 DEB, 34071 is space debris in LEO originally from a launch on Sun, 14 Sep 1997 UTC launched from the Tyuratam Missile And Space Complex (TTMTR). The debris from Iridium 33, an American commercial communications satellite, has been tracked extensively since its accidental collision with the defunct Russian satellite Cosmos 2251 in 2009. This event, occurring at high speed in low Earth orbit (LEO), generated thousands of pieces of space debris, significantly increasing the risk of further collisions. The Iridium 33 debris cloud has impacted space traffic management and orbital debris mitigation strategies, making it a subject of ongoing study in space situational awareness.

Loading next visibility...
Identifier
34071, 1997-051CE
Orbit
LEO
Country
Flag of USUS
Related business
Manufacturer
Unknown
Mission
Spacecraft
Bus & Motor
Unknown
Mass
Unknown
Launch date (UTC)
1997-09-14 (29 years ago)
Launch vehicle
Unknown
Launch site
Tyuratam Missile And Space Complex (TTMTR)
Object type
Payload
Rocket body
Debris
Shape & HBR
Unknown shape, 0.5 m
Radar Cross Section
Medium (>0.1 m² and <1 m²)

Expand to show TLE details & history
Last TLE update: 4 hours ago

TLE from 4 hours ago
0 IRIDIUM 33 DEB
1 34071U 97051CE  26120.58957403  .00001823  00000-0  46368-3 0  9993
2 34071  86.3425 317.4618 0008169  21.3234 338.8309 14.50202845903461
Epoch: 2026-04-30T14:08Z
TLE epoch observation values (Epoch: 2026-04-30T14:08:59.196Z)
Latitude
-0.00005°
Longitude
-113.31886°
Altitude
722.647 km
Speed
7.497 km/s
True Right ascension
21h 09m 50s
True Declination
0° 00' 00"
Sunlit
Object was in daylight at epoch
Visualization orbit readout
Latitude
Unknown
Longitude
Unknown
Altitude
Unknown
Speed
Unknown
Apparent Right ascension
Unknown
Apparent Declination
Unknown
Sunlit
N/A
Visualization observer readout
Local Sidereal Time
02:00:30
Azimuth
Unknown
Elevation
Unknown
Doppler factor
Unknown
Orbital elements
Apogee altitude
727.729 km
Perigee altitude
716.129 km
Semi-major axis
7,100.066 km
Eccentricity
0.00082
Inclination
86.3425°
RAAN
317.4618°
Arg. of periapsis
21.3234°
True anomaly
338.79706°
Mean anomaly
338.8309°
Eccentric anomaly
338.81398°
Mean motion
3.62785 °/min
Orbital period
99.23 mins
BSTAR
0.00046368
Loading maneuver chart data...
Computing Atmospheric mass density...

Documentation

Showing up to 5 results
|